Location: Unspecified
(0.0000°N, 0.0000°E)
Time: 20:25:40
(UTC+00:00)

STARLINK-4310 - Pass Details

Date: 31 October 2025
Orbit: 548 x 551 km, 97.6° (Epoch: 29 March)

Event Time Altitude Azimuth Distance (km) Brightness Sun altitude
Rises 17:43:04 0° 3° (N) 2,702 7.0 0.1°
Reaches altitude 10° 17:45:12 10° 358° (N) 1,812 6.1 -0.4°
Maximum altitude 17:49:01 53° 282° (WNW) 678 4.6 -1.3°
Drops below altitude 10° 17:52:52 10° 204° (SSW) 1,820 6.9 -2.2°
Sets 17:55:02 0° 199° (SSW) 2,715 7.7 -2.8°
